Flag for U.S.A. Weather past 2 weeks in Springfield, Massachusetts, U.S.A.

Now
51 °F

Sunny.


Feels Like: 46 °F
Forecast: 33 / 61 °F
Wind: 15 mph from Northwest

Location: Barnes Municipal Airport


UV Index: 5 (Moderate)

Visibility: 10 mi


Pressure: 30.23 "Hg

Humidity: 46%

Dew point: 31 °F

Location of SpringfieldLocation

Historic Weather in Springfield

°F

Springfield temperature yesterday

Maximum temperature yesterday: 48 °F (at 3:53 PM)
Minimum temperature yesterday: 26 °F (at 3:53 AM)
Average temperature yesterday: 39 °F

Past Weeks' High & Low Weather Summary

 TemperatureHumidityPressure
High76 °F (Apr 14, 1:53 PM)97% (Apr 8, 2:53 AM)30.79 "Hg (Apr 8, 2:53 AM)
Low26 °F (Apr 10, 5:53 AM)17% (Apr 6, 2:53 PM)29.30 "Hg (Apr 8, 2:53 PM)
Average48 °F59%30.04 "Hg
* Reported Apr 4 7:53 AM — Apr 19 7:53 AM, Springfield, Weather by CustomWeather, © 2014

Note: Actual official high and low records may vary slightly from our data, if they occured in-between our weather recording intervals... More about our weather records

Advertising

Historic Weather Conditions — Data for Previous 24 hours

 ConditionsComfort  
Time TempWeatherWind HumidityBarometerVisibility
7:53 AM
Apr 19
39 °FSunny.No wind79%30.23 "Hg10 mi
6:53 AM33 °FClear.3 mph85%30.22 "Hg10 mi
5:53 AM30 °FIce fog.3 mph92%30.22 "Hg6 mi
4:53 AM32 °FPassing clouds.No wind88%30.21 "Hg10 mi
3:53 AM33 °FClear.No wind92%30.20 "Hg10 mi
2:53 AM35 °FClear.3 mph78%30.21 "Hg10 mi
1:53 AM37 °FClear.3 mph76%30.21 "Hg10 mi
12:53 AM37 °FClear.5 mph79%30.22 "Hg10 mi
11:53 PM
Apr 18
41 °FClear.3 mph67%30.24 "Hg10 mi
10:53 PM43 °FClear.6 mph65%30.26 "Hg10 mi
9:53 PM41 °FClear.6 mph67%30.27 "Hg10 mi
8:53 PM42 °FClear.No wind68%30.27 "Hg10 mi
7:53 PM45 °FSunny.3 mph49%30.29 "Hg10 mi
6:53 PM47 °FSunny.8 mph46%30.30 "Hg10 mi
5:53 PM48 °FSunny.6 mph44%30.32 "Hg10 mi
4:53 PM48 °FSunny.3 mph44%30.35 "Hg10 mi
3:53 PM48 °FSunny.6 mph43%30.38 "Hg10 mi
2:53 PM47 °FSunny.3 mph44%30.42 "Hg10 mi
1:53 PM46 °FSunny.6 mph48%30.45 "Hg10 mi
12:53 PM45 °FSunny.7 mph49%30.46 "Hg10 mi
11:53 AM42 °FSunny.6 mph53%30.49 "Hg10 mi
10:53 AM39 °FOvercast.5 mph60%30.55 "Hg10 mi
9:53 AM37 °FOvercast.6 mph65%30.58 "Hg10 mi
Weather by CustomWeather, © 2014

See weather overview